Weather in Chkalovskiy

Russia / Orenburg Oblast     53°29′21″N   52°56′16″E
temp.,
°C
wind,
m/s
gust,
m/s
humid.,
%
clouds,
%
prec.,
mm/h
press.,
hPa
HPBL,
m
1 march, mon
mon123:00−17nnw339388 0.0 101141
02:00−18nw239476 0.0 101326
05:00−19nw229561 0.0 101521
08:00−19nw229574 0.0 101720
11:00−18nw249358 0.0 1019149
14:00−15nw349118 0.0 1019306
17:00−15wnw359352 0.0 1021357
20:00−19wnw339881 0.0 102132
2 march, tue
tue223:00−22w2210061 0.0 102120
02:00−23wsw2210073 0.0 102020
05:00−22ssw339965 0.0 101933
08:00−17s489798 0.1 1015260
11:00−13ssw6119599 0.4 1013371
14:00−9ssw71193100 0.9 1009609
17:00−6ssw71394100 1.7 1006680
20:00−4ssw71396100 0.8 1003619
3 march, wed
wed323:00−2sw71396100 2.2 1002645
02:00−2wsw51097100 0.9 1000376
05:00−3w489793 1.0 1001243
08:00−5w359698 0.1 1001150
11:00−7w359697 0.1 1003178
14:00−5w349597 0.1 1003273
17:00−4w459595 0.1 1003381
20:00−5w3795100 0.1 1004324
4 march, thu
thu423:00−8nw359599 0.3 1006104
02:00−10wnw379657 0.1 1006179
05:00−13w349770 0.1 100770
08:00−15w349980 0.0 100860
11:00−11wsw599487 0.1 1009286
14:00−8wsw599496 0.1 1008421
17:00−6sw6119398 0.3 1007562
20:00−6ssw71590100 0.1 1005717
5 march, fri
fri523:00−3sw81695100 0.6 1003893
02:00−1sw91696100 1.5 10011009
05:00−1sw91792100 2.2 999983
08:00−2wsw111794100 0.6 1000971
11:00−1wsw101691100 1.4 10031106
14:00−3w6118085 0.3 1006698
17:00−5w488754 0.3 1010304
20:00−10w339240 0.0 101221